Hourly Data Report for December 27, 2006

TORONTO CITY
ONTARIO

43°40'00.000" N
79°24'00.000" W
112.50 m
6158355
71508
XTO

Download Data

Hourly Data (December 2006)
Hourly Data Report for December 27, 2006
TIME
LST
Temp Definition
°C
Dew Point Definition
°C
Rel Hum Definition
%
Precip. Amount Definition
mm

Wind Dir Definition
10's deg

Wind Spd Definition
km/h
Visibility Definition
km
Stn Press Definition
kPa
Hmdx Definition


Wind Chill Definition


Weather Definition


00:00 -0.3 -3.5 79   LegendMM LegendMM   99.52     LegendNANA
01:00 -0.7 -4.5 75   LegendMM LegendMM   99.59     LegendNANA
02:00 -0.8 -4.4 77   LegendMM LegendMM   99.62     LegendNANA
03:00 -0.6 -4.2 77   LegendMM LegendMM   99.63     LegendNANA
04:00 -0.5 -4.5 74   LegendMM LegendMM   99.63     LegendNANA
05:00 -0.1 -4.7 71   LegendMM LegendMM   99.68     LegendNANA
06:00 0.1 -3.7 76   LegendMM LegendMM   99.70     LegendNANA
07:00 0.1 -1.5 89   LegendMM LegendMM   99.74     LegendNANA
08:00 0.5 -0.6 92   LegendMM LegendMM   99.78     LegendNANA
09:00 1.3 -1.4 82   LegendMM LegendMM   99.86     LegendNANA
10:00 1.7 -3.3 69   LegendMM LegendMM   99.92     LegendNANA
11:00 1.8 -3.3 69   LegendMM LegendMM   99.94     LegendNANA
12:00 1.3 -2.5 76   LegendMM LegendMM   99.93     LegendNANA
13:00 2.0 -2.7 71   LegendMM LegendMM   99.93     LegendNANA
14:00 2.0 -2.6 72   LegendMM LegendMM   99.95     LegendNANA
15:00 2.2 -1.9 74   LegendMM LegendMM   100.01     LegendNANA
16:00 2.3 -2.0 73   LegendMM LegendMM   100.12     LegendNANA
17:00 2.5 -2.6 69   LegendMM LegendMM   100.22     LegendNANA
18:00 2.6 -2.8 68   LegendMM LegendMM   100.34     LegendNANA
19:00 2.1 -3.0 69   LegendMM LegendMM   100.37     LegendNANA
20:00 1.7 -3.1 70   LegendMM LegendMM   100.43     LegendNANA
21:00 1.4 -2.4 76   LegendMM LegendMM   100.46     LegendNANA
22:00 1.6 -1.8 78   LegendMM LegendMM   100.45     LegendNANA
23:00 1.1 -1.9 80   LegendMM LegendMM   100.47     LegendNANA

Notes on Data Quality.

Legend

  • E = Estimated
  • M = Missing
  • NA = Not Available*
  • [empty] = Indicates an unobserved value
Date modified: